Погода Охотский Перевоз

Погода Охотский Перевоз : погода сейчас, прогноз погоды и архив. Всё, что Вы хотите узнать о погоде Охотский Перевоз!

Поиск расширенной информации на нашем сайте:

Другие новости

Новости СМИ2

Главная страница сайта

Новости сайта

03.07.2017

Напоминаем, что на нашем специализированном сайте Метеоцентр.Азия вы можете получить высокодетализированные автоматические прогнозы погоды по пунктам России, СНГ и мира в авиационном формате (включающие направление и скорость ветра, видимость, явления погоды, количество и форму облачности, нижнюю и верхнюю границу облачности).

Рекомендуем: Парк отдыха веслево Платная рыбалка.

Погода Охотский Перевоз - сегодня

Время (UTC), дата Ветер
(°,м/с) 
Видим.   Явления Облачность Т
(°С)
Тd
(°С)
f(%) Тe
(°С)
Pmin
(гПа)
dP
(гПа)
Po
(мм)
O2
(г/м3)
Тmin Tmax R s Состояние
почвы
00 18.11.17 тихо ()   20000 м    1/0 верхняя 
[Ci fib]
-39.5 -41.7 79 -40  1027.8  -0.3  755  358  -39.5         
03 18.11.17 240 (ЮЗ) 20000 м    ясно 
-34.1 -36.5 79 -35  1026.5  -0.7  755  349           
06 18.11.17 200 (Ю) 20000 м    4/0 верхняя 
[Ci fib]
-30.5 -33 79 -31  1025.9  -0.4  754  344           
09 18.11.17 210 (ЮЗ) 10 км    3/0 верхняя 
[Ci fib]
-34 -36.2 80 -35  1026.4  0.3  755  349    -30.4       
12 18.11.17 тихо ()   10 км    3/0 верхняя 
[Ci fib]
-37.7 -39.9 80 -38  1027.4  0.6  755  355           
15 18.11.17 тихо ()   10 км    ясно 
-38.9 -41.2 79 -39  1027.2  -0.3  755  357           
18 18.11.17 тихо ()   10 км    ясно 
-40.1 -42.2 80 -40  1027.4  0.1  755  359           
21 18.11.17 тихо ()   10 км    ясно 
-41.2 -43.2 81 -41  1027.4  -0.1  755  360  -41.2      26  равномерный
сухой снег
100% 
00 19.11.17 тихо ()   20000 м    ясно 
-41.5 -43.8 78 -42  1027.2  -0.1  755  361  -41.5         
03 19.11.17 тихо ()   20000 м    ясно 
-37.8 -39.9 81 -38  1026.3  -0.7  754  355           
06 19.11.17 тихо ()   20000 м    ясно 
-35.1 -37.4 79 -35  1025.1  -0.9  753  350           
09 19.11.17 тихо ()   10 км    ясно 
-38.6 -40.8 80 -39  1024.8  -0.7  753  355    -35.1       
12 19.11.17 тихо ()   10 км    ясно 
-40.1 -42.2 80 -40  1023.5  -1.4  752  357           
15 19.11.17 тихо ()   10 км    ясно 
-41 -43.2 79 -41  1021.5  -2  750  358           
18 19.11.17 тихо ()   10 км    ясно 
-41.5 -43.8 78 -42  1019.3  -2.2  749  358           
21 19.11.17 220 (ЮЗ) 4000 м  слаб. снег  9/0 верхняя 
[Cs]
-40 -42.2 79 -41  1016.9  -2.2  747  355  -41.7    0.2  26  равномерный
сухой снег
100% 
00 20.11.17 210 (ЮЗ) 20000 м  {снег}  9/0 средняя, верхняя 
[As trans|Cs]
-39.2 -41.2 81 -40  1014.7  -2.1  746  353           
03 20.11.17 250 (З) 4000 м  слаб. снег  10/0 средняя 
[As op]
-36.4 -38.8 78 -41  1011.6  -2.7  743  348           
06 20.11.17 230 (ЮЗ) 4000 м  слаб. снег  9/0 средняя, верхняя 
[As op|Cc]
-34.5 -36.8 79 -39  1009.1  -2.4  742  344           
09 20.11.17 210 (ЮЗ) 4000 м  слаб. снег  9/0 средняя 
[As op]
-34.3 -36.5 80 -40  1008.2  -0.8  741  343    -34.3  0.5     
12 20.11.17 210 (ЮЗ) 4000 м  слаб. снег  9/0 
-33.8 -36.2 79 -40  1008.2  741  343           
18 20.11.17 210 (ЮЗ) 4000 м  слаб. снег  10/0 средняя 
[As op]
-32.1 -34.4 80 -36  1007.7  741  340           
21 20.11.17 220 (ЮЗ) 4000 м  слаб. снег  10/0 средняя 
[As op]
-31.6 -33.9 80 -37  1007.5  -0.1  741  339  -34.3    0.8  26  равномерный
сухой снег
100% 
00 21.11.17 210 (ЮЗ) 4000 м  слаб. снег  10/0 средняя 
[As op]
-31.3 -33.6 80 -35  1007.8  0.3  741  339           
03 21.11.17 220 (ЮЗ) 4000 м  слаб. снег  10/0 средняя 
[As trans]
-30.8 -33.2 79 -35  1007.5  -0.3  741  338           
Время (UTC), дата Ветер
(°,м/с) 
Видим.   Явления Облачность Т
(°С)
Тd
(°С)
f(%) Тe
(°С)
Pmin
(гПа)
dP
(гПа)
Po
(мм)
O2
(г/м3)
Тmin Tmax R s Состояние
почвы

Для получения пояснительной информации подведите курсор к названию столбца.

ПОГОДА Охотский Перевоз - архив

Всё, что Вы хотите узнать о погоде Охотский Перевоз - удобно и подробно!

Выберите нужную дату (начиная с 1 января 2015* года) и нажмите кнопку "Найти".
Будут отображены архивные сводки погоды по пункту Охотский Перевоз, начиная с указанной даты.


Отображать данные в формате CSV (для использования в таблицах Excel)


Внимание! Наш архив погоды предназначен исключительно для личного некоммерческого использования в познавательных целях. Если Вам необходимы официальные справки о состоянии погоды (для производственных, юридических, коммерческих и т.п. целей), обращайтесь в органы Росгидромета.

*Примечание: данная дата относится к архиву по метеостанциям СССР (Россия, СНГ, Балтия).
Архив по метеостанциям Зарубежной Европы и Азии (кроме Китая) хранится 10 дней, по другим регионам земного шара (Китай, Африка, Америка, Австралия, Океания) - 1 день.

Охотский Перевоз - район местоположения метеостанции


Название, широта, долгота, высота метеостанции:
Охотский Перевоз 61.9°ш. 135.5°д. 140 м над ур. моря [Российская Федерация]

Дополнительная информация

В oтличие oт бoльшинства пoгoдных сайтoв мы публикуем пoдрoбную метеoинфoрмацию в детальнoм прoфессиoнальнoм фoрмате.

Характеристики температуры и влажнoсти вoздуха измеряются на высoте 2 м в тени вдали oт зданий и деревьев.
Скoрoсть ветра измеряется на высoте 10 м (на урoвне рoста челoвека скoрoсть ветра ниже в 1.5-2 раза). Если метеoстанция нахoдится в гoрoде или в лесу, тo скoрoсть ветра занижена на 2-4 м/с пo сравнению с oткрытым местoм. Скoрoсть ветра над акватoриями крупных рек и oзёр, а также на вершинах хoлмoв на 2-5 м/с выше, чем в oбычных услoвиях.
Атмoсфернoе давление в разных тoчках местнoсти мoжет значительнo oтличаться oт давления на метеoстанции, в зависимoсти oт услoвий рельефа (при пoдъёме на 10 м давление пoнижается примернo на 1 мм рт.ст.).